GW3950 Weather Reports


time (UTC)temp
C
wind
direction
speed
KPH
gust
KPH
rain 1hr
cm
rain 24hr
cm
rain mn
cm
humidity
%
barometer
mb
20260509034725 20 61 3.2 4.8 0.00 0.61 0.64 88 1008.5
20260509032640 20 134 3.2 8.0 0.00 0.61 0.64 87 1007.7
20260509030503 21 159 6.4 14.5 0.00 0.61 0.64 87 1007.3
20260509025528 21 163 8.0 17.7 0.00 0.61 0.64 87 1006.8
20260509024502 21 155 9.7 17.7 0.00 0.61 0.64 86 1006.4
20260509023439 21 169 9.7 19.3 0.00 0.61 0.64 86 1006.3
20260509022412 21 163 9.7 19.3 0.00 0.61 0.64 86 1006.3
20260509021350 21 169 9.7 16.1 0.00 0.61 0.64 85 1006.0
20260509020316 21 140 9.7 14.5 0.00 0.61 0.64 85 1006.0
20260509015250 21 132 4.8 8.0 0.00 0.61 0.64 84 1006.2
20260509014300 21 146 1.6 6.4 0.00 0.61 0.64 83 1006.5
20260509013241 21 121 3.2 6.4 0.00 0.61 0.64 83 1006.7
20260509012214 21 128 4.8 12.9 0.00 0.61 0.64 83 1006.5
20260509001543 22 158 12.9 20.9 0.00 0.61 0.64 79 1006.0
20260509000525 22 157 9.7 19.3 0.00 0.61 0.64 78 1006.1
20260508235511 22 153 9.7 19.3 0.00 0.61 0.64 78 1006.3
20260508233420 22 160 6.4 14.5 0.00 0.61 0.64 79 1006.5
20260508231217 22 168 8.0 16.1 0.00 0.61 0.64 78 1006.6
20260508230238 22 182 11.3 17.7 0.00 0.61 0.64 77 1006.6
20260508224036 23 153 11.3 20.9 0.00 0.61 0.64 76 1006.6
20260508223053 23 188 12.9 17.7 0.00 0.61 0.64 76 1006.8
20260508222059 23 149 9.7 22.5 0.00 0.61 0.64 75 1006.6
20260508221047 23 118 12.9 24.1 0.00 0.61 0.64 74 1006.7
20260508220052 23 152 14.5 25.7 0.00 0.61 0.64 75 1006.7
20260508215024 23 132 16.1 25.7 0.00 0.61 0.64 73 1006.7
20260508214003 23 161 16.1 25.7 0.00 0.61 0.64 72 1006.8
20260508213010 23 129 14.5 29.0 0.00 0.61 0.64 71 1006.9
20260508212031 23 138 16.1 29.0 0.00 0.61 0.64 69 1007.0
20260508211029 24 171 12.9 22.5 0.00 0.61 0.64 69 1007.2
20260508204843 24 147 9.7 20.9 0.00 0.61 0.64 70 1007.4
20260508203844 23 155 11.3 20.9 0.00 0.61 0.64 70 1007.5
20260508202900 23 58 8.0 17.7 0.00 0.61 0.64 68 1007.9
20260508201842 23 169 9.7 19.3 0.00 0.61 0.64 70 1008.2
20260508194629 22 123 8.0 14.5 0.00 0.61 0.64 73 1009.1
20260508193603 21 163 11.3 19.3 0.00 0.61 0.64 74 1009.4
20260508191525 22 148 14.5 20.9 0.00 0.61 0.64 71 1009.4
20260508190459 22 190 12.9 24.1 0.00 0.61 0.64 72 1009.4
20260508185425 22 128 12.9 24.1 0.00 0.61 0.64 72 1009.4
20260508184440 22 153 11.3 19.3 0.00 0.61 0.64 72 1009.5
20260508183422 22 126 8.0 19.3 0.00 0.61 0.64 70 1009.6
20260508182405 22 134 8.0 16.1 0.00 0.61 0.64 70 1009.7
20260508181342 22 157 8.0 16.1 0.00 0.61 0.64 70 1009.9
20260508180327 22 161 6.4 17.7 0.00 0.61 0.64 70 1010.0
20260508175342 21 153 9.7 17.7 0.00 0.61 0.64 73 1010.1
20260508174311 21 150 12.9 19.3 0.00 0.61 0.64 72 1010.3
20260508173243 21 132 12.9 19.3 0.00 0.61 0.64 72 1010.6
20260508171144 21 147 8.0 19.3 0.00 0.61 0.64 70 1010.9
20260508170121 21 165 8.0 17.7 0.00 0.61 0.64 68 1010.9
20260508162856 20 133 9.7 16.1 0.00 0.61 0.64 72 1011.6
20260508161902 20 132 11.3 16.1 0.00 0.61 0.64 71 1011.8
20260508160922 20 189 11.3 17.7 0.00 0.61 0.64 72 1011.8
20260508155931 21 155 11.3 20.9 0.00 0.61 0.64 73 1011.8
20260508153829 20 171 8.0 14.5 0.00 0.61 0.64 75 1011.9
20260508151723 20 120 3.2 9.7 0.00 0.61 0.64 75 1012.1
20260508145559 19 155 4.8 9.7 0.00 0.61 0.64 77 1012.4
20260508143434 18 173 4.8 16.1 0.00 0.61 0.64 78 1012.5
20260508142452 18 152 8.0 16.1 0.00 0.61 0.64 77 1012.6
20260508141514 18 132 9.7 16.1 0.00 0.61 0.64 81 1012.7
20260508135331 17 175 3.2 6.4 0.00 0.61 0.64 89 1012.7
20260508134313 16 164 3.2 6.4 0.00 0.61 0.64 90 1012.6
20260508133301 16 160 3.2 6.4 0.00 0.61 0.64 90 1012.8
20260508132232 15 159 1.6 4.8 0.00 0.61 0.64 91 1013.0
20260508131233 15 163 1.6 4.8 0.00 0.61 0.64 91 1012.8
20260508130207 15 136 0.0 1.6 0.00 0.61 0.64 91 1012.8
20260508125210 15 136 0.0 0.0 0.00 0.61 0.64 91 1012.7
20260508124203 15 194 0.0 0.0 0.00 0.61 0.64 91 1012.8
20260508123136 14 194 0.0 16.1 0.10 0.61 0.64 91 1012.8
20260508122149 14 148 6.4 16.1 0.25 0.61 0.64 91 1012.5
20260508121147 15 202 3.2 9.7 0.33 0.58 0.58 91 1013.0
20260508120201 15 145 0.0 3.2 0.00 0.46 0.46 91 1012.8
20260508114021 15 155 0.0 0.0 0.00 0.46 0.46 91 1012.7
20260508112955 15 162 1.6 3.2 0.00 0.46 0.46 91 1013.0
20260508111931 15 82 0.0 4.8 0.00 0.46 0.46 91 1012.8
20260508110925 15 161 1.6 6.4 0.00 0.46 0.46 91 1012.6
20260508105941 15 160 3.2 6.4 0.00 0.46 0.46 91 1012.5
20260508104942 15 168 0.0 1.6 0.00 0.46 0.46 91 1012.5
20260508103923 15 168 0.0 0.0 0.00 0.41 0.43 91 1012.6
20260508102933 15 168 0.0 1.6 0.00 0.41 0.43 91 1012.6
20260508100734 15 168 0.0 0.0 0.10 0.41 0.43 91 1012.5
20260508095730 15 168 0.0 0.0 0.23 0.41 0.43 91 1012.5
20260508092426 15 168 0.0 0.0 0.00 0.23 0.25 91 1012.4
20260508091400 15 168 0.0 4.8 0.00 0.23 0.25 91 1012.4
20260508085228 15 168 0.0 0.0 0.00 0.23 0.25 90 1012.7
20260508084242 15 168 0.0 0.0 0.00 0.23 0.25 90 1012.7
20260508083213 15 168 0.0 0.0 0.00 0.23 0.25 90 1012.8
20260508081018 15 168 0.0 1.6 0.00 0.23 0.25 90 1012.9
20260508080038 15 168 0.0 0.0 0.00 0.23 0.25 89 1013.0
20260508075051 15 168 0.0 1.6 0.00 0.23 0.25 89 1013.0
20260508074054 15 168 0.0 0.0 0.00 0.23 0.25 89 1012.9
20260508073104 15 168 6.4 9.7 0.00 0.23 0.25 88 1012.9
20260508072041 15 148 0.0 8.0 0.00 0.23 0.25 88 1012.9
20260508071031 15 149 0.0 0.0 0.00 0.23 0.25 87 1013.7
20260508064929 15 275 0.0 0.0 0.15 0.23 0.25 86 1014.3
20260508063913 15 217 0.0 0.0 3.28 0.10 0.15 85 1014.3
20260508062902 15 178 0.0 1.6 0.84 0.05 0.05 85 1014.2
20260508060743 15 178 0.0 0.0 0.00 0.00 0.00 85 1014.1
20260508053535 14 178 1.6 4.8 0.00 0.00 0.00 85 1014.1
20260508052556 14 178 1.6 4.8 0.00 0.00 0.00 86 1014.3
20260508051541 14 163 0.0 4.8 0.00 0.00 0.00 85 1014.4
20260508045402 14 150 0.0 0.0 0.00 0.00 0.00 84 1014.1
20260508044407 14 150 0.0 0.0 0.00 0.00 0.00 83 1014.3
20260508043335 15 150 0.0 0.0 0.00 0.00 0.00 83 1014.3
20260508042320 15 151 0.0 0.0 0.00 0.00 0.00 83 1014.3
20260508041321 15 151 0.0 0.0 0.00 0.00 0.00 83 1014.3
20260508040254 15 151 0.0 0.0 0.00 0.00 0.00 82 1014.2